Location: Ward Pound Ridge Reservation
(41.2500°N, 73.6000°W)
Time: 19:19:28
(UTC-04:00)

OTV 5 (USA 277) - Pass Details

Date: 12 October 2017
Orbit: 404 x 417 km, 43.0° (Epoch: 07 September)

Event Time Altitude Azimuth Distance (km) Brightness Sun altitude
Rises 19:38:05 0° 255° (WSW) 2,349 ? -15.9°
Reaches altitude 10° 19:40:12 10° 255° (WSW) 1,488 ? -16.3°
Maximum altitude 19:43:34 90° 334° (NNW) 420 ? -16.9°
Enters shadow 19:44:25 48° 75° (ENE) 553 ? -17.1°
